Huntington, WV

6:04 PM EDT on May 26, 2017 (GMT -0400)
Tri-State / Ferguson

Weather History for KHTS - October, 2012

Change the Weather History Date:

Friday, October 26, 2012

  Actual Average Record
Temperature  
Mean Temperature 66 °F 54 °F  
Max Temperature 79 °F 65 °F 87 °F (1939)
Min Temperature 52 °F 42 °F 21 °F (1962)
Degree Days  
Heating Degree Days 0 12  
Month to date heating degree days 213 218  
Since 1 July heating degree days 283 276  
Cooling Degree Days 1 0  
Month to date cooling degree days 20 16  
Year to date cooling degree days 1325 1127  
Growing Degree Days 15 (Base 50)    
Moisture  
Dew Point 50 °F    
Average Humidity 63    
Maximum Humidity 83    
Minimum Humidity 43    
Precipitation  
Precipitation 0.00 in 0.10 in 0.95 in (1978)
Month to date precipitation 0.60 2.32  
Year to date precipitation 32.53 35.35  
Snow  
Snow 0.00 in - - ()
Month to date snowfall 0.0  
Since 1 September snowfall 0.0  
Snow Depth 0.00 in    
Sea Level Pressure  
Sea Level Pressure 30.02 in    
Wind  
Wind Speed 4 mph (WNW)    
Max Wind Speed 17 mph    
Max Gust Speed 22 mph    
Visibility 10 miles    
Events      
T = Trace of Precipitation, MM = Missing Value Source: NWS Daily Summary

Daily Weather History Graph

Daily Weather History Graph

Search for Another Location

Airport or City:

Trip Planner

Search our weather history database for the weather conditions in past years. The results will help you decide how hot, cold, wet, or windy it might be!

Date:

Astronomy

Oct. 26, 2012 Rise Set
Actual Time 7:50 AM EDT 6:36 PM EDT
Civil Twilight 7:23 AM EDT 7:04 PM EDT
Nautical Twilight 6:52 AM EDT 7:35 PM EDT
Astronomical Twilight 6:21 AM EDT 8:05 PM EDT
Moon 4:50 PM EDT 4:47 AM EDT
Length of Visible Light 11h 40m
Length of Day
10h 46m
Waxing Gibbous, 91% of the Moon is Illuminated
Oct 26
Waxing Gibbous
Oct 29
Full
Nov 6
Last Quarter
Nov 13
New
Nov 20
First Quarter

Hourly Weather History & Observations

Time (EDT) Temp. Dew Point Humidity Pressure Visibility Wind Dir Wind Speed Gust Speed Precip Events Conditions
12:51 AM 61.0 °F 48.0 °F 62% 30.01 in 10.0 mi SSW 4.6 mph - N/A   Clear
1:51 AM 62.1 °F 46.9 °F 58% 30.01 in 10.0 mi SSW 3.5 mph - N/A   Clear
2:51 AM 61.0 °F 46.9 °F 60% 30.01 in 10.0 mi SSE 4.6 mph - N/A   Clear
3:51 AM 60.1 °F 46.9 °F 62% 30.01 in 10.0 mi SSW 4.6 mph - N/A   Clear
4:51 AM 57.0 °F 48.0 °F 72% 30.01 in 10.0 mi Calm Calm - N/A   Clear
5:51 AM 55.9 °F 48.0 °F 75% 30.03 in 10.0 mi Calm Calm - N/A   Clear
6:51 AM 54.0 °F 48.0 °F 80% 30.04 in 10.0 mi Calm Calm - N/A   Overcast
7:51 AM 54.0 °F 48.9 °F 83% 30.06 in 10.0 mi East 3.5 mph - N/A   Mostly Cloudy
8:51 AM 57.9 °F 50.0 °F 75% 30.07 in 10.0 mi Calm Calm - N/A   Scattered Clouds
9:51 AM 63.0 °F 52.0 °F 67% 30.08 in 9.0 mi Calm Calm - N/A   Mostly Cloudy
10:51 AM 66.9 °F 53.1 °F 61% 30.08 in 9.0 mi Calm Calm - N/A   Overcast
11:51 AM 73.0 °F 54.0 °F 51% 30.08 in 10.0 mi Calm Calm - N/A   Mostly Cloudy
12:51 PM 75.0 °F 55.0 °F 50% 30.05 in 10.0 mi WNW 6.9 mph - N/A   Clear
1:51 PM 77.0 °F 54.0 °F 45% 30.01 in 10.0 mi NW 3.5 mph - N/A   Partly Cloudy
2:51 PM 75.9 °F 54.0 °F 46% 29.98 in 10.0 mi WSW 4.6 mph - N/A   Mostly Cloudy
3:51 PM 75.9 °F 54.0 °F 46% 29.96 in 10.0 mi Calm Calm - N/A   Mostly Cloudy
4:51 PM 75.0 °F 54.0 °F 48% 29.96 in 10.0 mi West 4.6 mph - N/A   Overcast
5:51 PM 69.1 °F 54.0 °F 58% 29.97 in 10.0 mi NNW 12.7 mph 21.9 mph N/A   Overcast
6:51 PM 64.0 °F 52.0 °F 65% 30.00 in 10.0 mi NNW 11.5 mph - N/A   Mostly Cloudy
7:51 PM 59.0 °F 48.0 °F 67% 30.03 in 10.0 mi NW 9.2 mph - N/A   Mostly Cloudy
8:51 PM 54.0 °F 46.0 °F 75% 30.04 in 10.0 mi NNW 11.5 mph 17.3 mph N/A   Mostly Cloudy
9:51 PM 52.0 °F 46.0 °F 80% 30.03 in 10.0 mi NNW 6.9 mph - N/A   Partly Cloudy
10:23 PM 51.8 °F 46.4 °F 82% 30.03 in 10.0 mi NNW 5.8 mph - N/A   Mostly Cloudy
10:51 PM 52.0 °F 46.9 °F 83% 30.01 in 10.0 mi NNW 4.6 mph - N/A   Overcast
11:51 PM 52.0 °F 46.9 °F 83% 30.01 in 10.0 mi NW 5.8 mph - N/A   Overcast